Regional Weather Roundup
Issued by NWS Wakefield, VA

Home | Current Version | Previous Version | Graphics & Text | Print | Product List | Glossary On
Versions: 1 2 3 4 5 6 7 8 9 10 11 12 13 14 15 16 17 18 19 20 21 22 23 24 25 26 27 28 29 30 31 32 33 34 35 36 37 38 39 40 41 42 43 44 45 46 47 48 49 50
000
ASUS41 KAKQ 300115
RWRAKQ

REGIONAL WEATHER ROUNDUP
NATIONAL WEATHER SERVICE WAKEFIELD VA
900 PM EDT MON MAY 29 2017

Note: "fair" indicates few or no clouds below 12,000 feet with no
significant weather and/or obstructions to visibility. * = Denotes
station may not report precipitation (e.g., rain,snow,etc.),
thunder or fog.

VAZ042-051-052>054-056-300200-
NORTHERN VIRGINIA

CITY           SKY/WX    TMP DP  RH WIND       PRES   REMARKS
WASH NATIONAL  CLOUDY    74  67  78 SE12      29.97S
DULLES         CLOUDY    69  57  65 CALM      29.96S
FORT BELVOIR   MOCLDY    67  61  80 CALM      29.97R
QUANTICO       CLOUDY    73  67  81 CALM      29.97S
FREDERICKSBRG* CLOUDY    71  65  83 CALM      29.96S
STAFFORD*      CLOUDY    67  67  99 CALM      30.01S
WARRENTON      CLOUDY    69  62  79 SE3       29.97R
CULPEPER*      CLOUDY    69  65  88 CALM      29.98R
MANASSAS*      MOCLDY    71  62  73 CALM      29.97S
LEESBURG*      PTCLDY    72  64  78 CALM      29.98S
WINCHESTER     PTCLDY    64  61  88 CALM      29.98R
FRONT ROYAL*   PTCLDY    68  59  73 CALM      29.96S
LURAY*         MOCLDY    68  61  77 CALM      29.99R
$$

VAZ048-049-060>072-079>083-300200-
CENTRAL AND SOUTH CENTRAL VIRGINIA

CITY           SKY/WX    TMP DP  RH WIND       PRES   REMARKS
RICHMOND       CLOUDY    76  64  66 SE3       29.96S
CHESTERFIELD*  NOT AVBL
PETERSBURG*    PTCLDY    71  69  95 CALM      29.97F
HANOVER        CLOUDY    75  65  70 CALM      29.98R
TAPPAHANNOCK*  CLOUDY    69  69 100 E7        30.00S
QUINTON*       MOCLDY    76  67  72 SE5       29.96S
CHARLOTTSVILLE MOCLDY    72  63  73 CALM      29.98R
GORDONSVILLE*  PTCLDY    66  66 100 CALM      29.98R
ORANGE*        CLOUDY    66  63  88 CALM      29.98R
LOUISA*        CLOUDY    70  66  88 CALM      29.98R
BUMPASS*       FAIR      71  65  83 CALM      29.97S
FARMVILLE*     CLOUDY    73  55  53 CALM      29.97S
CREWE*         FAIR      71  67  87 CALM      29.99R
FORT PICKETT*  FAIR      73  66  77 CALM      29.99R
CHASE CITY*    CLOUDY    72  70  95 NW3       30.00R
CLARKSVILLE*   MOCLDY    68  66  94 CALM      29.99R
SOUTH HILL*    CLOUDY    74  72  95 CALM      30.04S
LAWRENCEVILLE* FAIR      75  69  80 CALM      29.98S
EMPORIA*         N/A     72  68  88 CALM      29.99S
$$

VAZ088>098-300200-
SOUTHEAST VIRGINIA

CITY           SKY/WX    TMP DP  RH WIND       PRES   REMARKS
NORFOLK        PTCLDY    71  65  81 SE8       30.00R
VIRGINIA BEACH CLOUDY    67  64  90 SE12      30.01R
NORFOLK NAVAL  MOCLDY    72  65  78 SE10      30.01R
WEST POINT*    CLOUDY    72  67  84 E9        30.00R
SALUDA*        CLOUDY    66  65  96 SE9G16    30.01R
NEWPORT NEWS   CLOUDY    70  66  87 SE10      29.99R
LANGLEY AFB    LGT RAIN  68  68 100 SE16      29.99S
FORT EUSTIS    MOCLDY    74  67  79 SE8       29.97R
WILLIAMSBURG*  PTCLDY    73  70  88 CALM      29.99R
HR EXEC AP*    FAIR      73  66  78 SE7       29.98R
FRANKLIN*      CLOUDY    76  68  76 SE6       29.99R
US460-WAKEFLD  CLOUDY    76  69  79 VRB6      29.98R
$$

VAZ020-022-025-037-045-300200-
WEST CENTRAL AND SOUTHWEST VIRGINIA

CITY           SKY/WX    TMP DP  RH WIND       PRES   REMARKS
STAUNTON*      PTCLDY    67  56  68 CALM      30.03R
WAYNESBORO*    CLOUDY    64  59  83 SW3       30.03R
HOT SPRINGS VA PTCLDY    61  41  48 W6        30.13R
LYNCHBURG      CLOUDY    67  62  84 CALM      30.02R
DANVILLE       MOCLDY    69  64  84 E3        30.01R
SOUTH BOSTON*  CLOUDY    67  66  96 NE3       30.00F
MARTINSVILLE   CLOUDY    70  66  85 CALM      30.05R
ROANOKE        CLOUDY    73  57  57 E3        30.04R
BLACKSBURG     CLOUDY    67  54  63 W3        30.10R
DUBLIN*        CLOUDY    69  55  59 CALM      30.08S
MARION*        CLOUDY    68  59  73 CALM      30.12R
HILLSVILLE*    CLOUDY    68  55  62 CALM      30.09R
RICHLANDS*     FAIR      66  61  86 CALM      30.08S
WISE*          CLOUDY    66  59  77 CALM      30.08F
ABINGDON*      CLOUDY    68  64  87 W6        30.07S
$$

MDZ021>025-VAZ099-100-300200-
SOUTHERN MARYLAND AND THE DELMARVA PENINSULA

CITY           SKY/WX    TMP DP  RH WIND       PRES   REMARKS
PATUXENT RIVER CLOUDY    69  68  96 SE13G23   30.00R
BAY BRIDGE APT CLOUDY    68  63  83 SE10      30.00R
LEONARDTOWN    CLOUDY    70  64  83 E3        30.02R
DOVER          CLOUDY    62  62 100 E12       30.02R
GEORGETOWN     CLOUDY    60  56  86 E9        30.05R
EASTON         MOCLDY    64  59  82 SE8       30.06R
CAMBRIDGE      CLEAR     66  61  82 E12       30.01R
SALISBURY      CLOUDY    61  59  93 SE10      30.04R
OCEAN CITY     CLOUDY    59  56  89 E10       30.07R
WALLOPS ISLAND CLOUDY    60  59  96 E13       30.05R
ACCOMACK*      CLOUDY    62  59  89 E7        30.03R
$$

NCZ012>017-030>032-300200-
NORTH CENTRAL AND EASTERN NORTH CAROLINA

CITY           SKY/WX    TMP DP  RH WIND       PRES   REMARKS
ROANOKE RAPIDS FAIR      73  70  88 CALM      29.98S
RALEIGH        CLOUDY    78  65  63 CALM      30.00R
ELIZABETH CITY PTCLDY    73  70  90 E10       30.00R
AHOSKIE*       NOT AVBL
EDENTON*       CLOUDY    77  72  84 E6        30.00R
CURRITUCK*     MOCLDY    72  70  94 E5        30.02S
KILL DEVIL HLS PTCLDY    69  67  93 CALM      30.01R
MANTEO         PTCLDY    70  66  87 SE10      30.03R
CAPE HATTERAS  CLEAR     75  70  84 E6        30.00R
TARBORO*       NOT AVBL
GOLDSBORO      MOCLDY    81  69  67 E3        29.96S
WASHINGTON     CLOUDY    78  69  74 CALM      29.99R
GREENVILLE     PTCLDY    77  70  78 CALM      30.00S
NEW BERN       PTCLDY    77  68  73 CALM      30.00R
WILMINGTON     CLEAR     79  68  69 SW9       30.00R
$$

VAZ048-300200-
ELSEWHERE

CITY           SKY/WX    TMP DP  RH WIND       PRES   REMARKS
HARRISBURG PA  CLOUDY    67  63  87 SE12      29.98R
BALTIMORE      CLOUDY    68  65  90 E10       29.99R
ANNAPOLIS      MOCLDY    70  67  90 E7        30.01R
ANDREWS AFB    CLOUDY    70  64  82 E9        29.98R
PHILADELPHIA   CLOUDY    61  56  83 E12       30.03S
HENDERSON NC   LGT RAIN  72  68  87 S3        30.00R
GREENSBORO     LGT RAIN  67  66  97 S6        30.03R
ROCKY MOUNT    MOCLDY    75  70  84 CALM      29.98S
$$

VAZ100-300200-
MARINE

STATION/POSITION TIME  TEMP    WIND        PRES    WAVE   SWELL
                       AIR SEA DIR/SP/G            HT/PER HT/PER
                 (UTC) (F)     (DEG/KT/KT) (MB)    (FT/S) (FT/S)
CAPE MAY NJ      0048   58 63   60/  7/ 11 1016.7R
LEWES DE         0048   59 64  100/ 12/ 15 1017.2R
15NM E FENWICK I 0050   58 59   70/ 12/ 14 1017.9R   5/ 7   5/ 7
WACHAPREAGUE VA  0048   62 73   60/ 10/ 12 1016.9R
THOMAS POINT MD  0100   68 65  120/ 11/ 13   N/A
GOOSES REEF MD   0050   71     110/ 10/ 12 1016.4R
COVE POINT MD    0048   70     160/ 11/ 16 1016.6R
SOLOMONS ISLAND  0048   70 70  140/ 16/ 19   N/A
BISHOPS HEAD MD  0048   68 74  140/ 15/ 16 1016.8R
PINEY POINT MD   0042          160/ 10/ 11   N/A
POTOMAC MD       0050   67     160/ 17/ 19 1015.3R
CAMBRIDGE MD     0036   67 72                N/A
LEWISETTA VA     0048   69 72  170/ 10/ 12 1015.4F
RAPPAHANNOCK LGT 0042          100/ 19/ 22 1016.6R
STINGRAY PT      0050   66     150/ 14/ 17 1015.8R
YORK RVR RNG VA  0048   65     130/ 19/ 21 1015.5R
YORKTOWN VA      0048   69 72  110/ 12/ 15 1015.5R
JAMESTOWN VA     0050   75      90/  6/ 10   N/A
DOMINION TERM VA 0048   74     110/  9/ 11 1015.6R
KIPTOPEKE VA     0042      70  120/ 11/ 15   N/A
CHES BAY BRIDGE  0048   67 70  120/ 11/ 18 1016.1R
CAPE HENRY VA    0048   65     110/ 15/ 18   N/A
WILLOUBY STN VA  0048   72     130/ 13/ 15 1015.4R
S CRANEY ISL VA  0048   73     130/ 11/ 15 1015.4R
CAPE HENRY BUOY  0012      65                N/A     3/ 7
1ST LANDING BUOY 0050   66                 1016.6R
CAPE CHARLES BUO 0051      66                N/A     3/ 3
64NM E OF VA BCH 0050   63 65  100/  8/ 10 1017.5R   3/ 6   3/ 6
DUCK PIER NC     0048   70 70  110/ 13/ 15 1015.9R
44100 DUCK FRF   0035      68                N/A     3/ 7
44056 DUCK FRF   0030      69                N/A     2/ 9
OREGON INLET NC  0042   70 72   80/  9/ 13 1016.5R
HATTERAS NC      0048   78 77  210/  8/ 11 1015.5R
DIAMOND SHLS NC  0050   78 77  200/  6/  8 1016.1R   2/10   2/10
CAPE LOOKOUT NC  0100   76     210/  5/  7 1015.8R
$$



USA.gov is the U.S. government's official web portal to all federal, state and local government web resources and services.